Weather History for KBBB - February, 2014

Change the Weather History Date:

Wednesday, February 5, 2014

  Actual Average Record
Temperature  
Mean Temperature -6 °F -  
Max Temperature 1 °F 21 °F 59 °F (1963)
Min Temperature -13 °F 2 °F -27 °F (1982)
Degree Days  
Heating Degree Days 71    
Moisture  
Dew Point -11 °F    
Average Humidity 73    
Maximum Humidity 84    
Minimum Humidity 65    
Precipitation  
Precipitation 0.00 in - - ()
Sea Level Pressure  
Sea Level Pressure 30.54 in    
Wind  
Wind Speed 11 mph (North)    
Max Wind Speed 23 mph    
Max Gust Speed 26 mph    
Visibility 9 miles    
Events Snow    
Averages and records for this station are not official NWS values.
T = Trace of Precipitation, MM = Missing Value Source: NWS Daily Summary

Daily Weather History Graph

Daily Weather History Graph

Search for Another Location

Airport or City:

Trip Planner

Search our weather history database for the weather conditions in past years. The results will help you decide how hot, cold, wet, or windy it might be!

Date:

Astronomy

Feb. 05, 2014 Rise Set
Actual Time 7:38 AM CST 5:35 PM CST
Civil Twilight 7:07 AM CST 6:06 PM CST
Nautical Twilight 6:31 AM CST 6:41 PM CST
Astronomical Twilight 5:57 AM CST 7:16 PM CST
Moon 10:33 AM CST (2/5) No Moon Set
Length of Visible Light 10h 59m
Length of Day
9h 57m
Waxing Crescent, 39% of the Moon is Illuminated
Feb 5
Waxing Crescent
Feb 6
First Quarter
Feb 14
Full
Feb 22
Last Quarter
Mar 1
New

Hourly Weather History & Observations

Time (CST) Temp. Windchill Dew Point Humidity Pressure Visibility Wind Dir Wind Speed Gust Speed Precip Events Conditions
12:12 AM -5.8 °F -19.9 °F -13.0 °F 71% 30.55 in 10.0 mi North 6.9 mph - N/A   Clear
12:32 AM -5.8 °F -21.2 °F -14.8 °F 65% 30.55 in 10.0 mi North 8.1 mph - N/A   Clear
12:53 AM -5.8 °F -21.2 °F -14.8 °F 65% 30.54 in 10.0 mi North 8.1 mph - N/A   Clear
1:12 AM -5.8 °F -22.4 °F -13.0 °F 71% 30.54 in 10.0 mi North 9.2 mph - N/A   Clear
1:32 AM -5.8 °F -21.2 °F -13.0 °F 71% 30.54 in 10.0 mi North 8.1 mph - N/A   Clear
1:53 AM -5.8 °F -21.2 °F -13.0 °F 71% 30.55 in 10.0 mi North 8.1 mph - N/A   Clear
2:12 AM -5.8 °F -19.9 °F -11.2 °F 77% 30.55 in 10.0 mi North 6.9 mph - N/A   Clear
2:32 AM -4.0 °F -19.0 °F -11.2 °F 71% 30.55 in 10.0 mi North 8.1 mph - N/A   Clear
2:53 AM -2.2 °F -18.0 °F -11.2 °F 66% 30.55 in 10.0 mi North 9.2 mph - N/A   Mostly Cloudy
3:12 AM -2.2 °F -18.9 °F -9.4 °F 71% 30.55 in 10.0 mi North 10.4 mph - N/A   Overcast
3:32 AM -2.2 °F -19.9 °F -9.4 °F 71% 30.54 in 10.0 mi North 11.5 mph - N/A   Overcast
3:53 AM -2.2 °F -18.0 °F -9.4 °F 71% 30.54 in 10.0 mi North 9.2 mph - N/A   Overcast
4:12 AM -2.2 °F -18.0 °F -9.4 °F 71% 30.54 in 10.0 mi North 9.2 mph - N/A   Overcast
4:32 AM -2.2 °F -18.0 °F -9.4 °F 71% 30.54 in 10.0 mi North 9.2 mph - N/A Snow Light Snow
4:53 AM -2.2 °F -16.8 °F -9.4 °F 71% 30.54 in 7.0 mi North 8.1 mph - N/A Snow Light Snow
5:12 AM -2.2 °F -18.0 °F -9.4 °F 71% 30.54 in 7.0 mi North 9.2 mph - N/A Snow Light Snow
5:33 AM -2.2 °F -18.0 °F -7.6 °F 78% 30.54 in 7.0 mi North 9.2 mph - N/A Snow Light Snow
5:52 AM -2.2 °F -18.9 °F -7.6 °F 78% 30.54 in 7.0 mi North 10.4 mph - N/A Snow Light Snow
6:12 AM -2.2 °F -19.9 °F -7.6 °F 78% 30.54 in 10.0 mi North 11.5 mph - N/A Snow Light Snow
6:33 AM -2.2 °F -19.9 °F -9.4 °F 71% 30.54 in 10.0 mi North 11.5 mph - N/A   Overcast
6:53 AM -2.2 °F -20.7 °F -9.4 °F 71% 30.54 in 10.0 mi North 12.7 mph - N/A Snow Light Snow
7:12 AM -4.0 °F -22.1 °F -9.4 °F 78% 30.54 in 10.0 mi North 11.5 mph - N/A Snow Light Snow
7:33 AM -4.0 °F -22.1 °F -9.4 °F 78% 30.55 in 7.0 mi North 11.5 mph - N/A Snow Light Snow
7:52 AM -4.0 °F -21.2 °F -9.4 °F 78% 30.55 in 7.0 mi North 10.4 mph - N/A Snow Light Snow
8:12 AM -4.0 °F -23.0 °F -9.4 °F 78% 30.55 in 10.0 mi North 12.7 mph - N/A Snow Light Snow
8:33 AM -4.0 °F -23.0 °F -9.4 °F 78% 30.55 in 10.0 mi North 12.7 mph - N/A   Clear
8:52 AM -4.0 °F -22.1 °F -9.4 °F 78% 30.55 in 10.0 mi North 11.5 mph - N/A   Clear
9:12 AM -2.2 °F -18.9 °F -9.4 °F 71% 30.56 in 10.0 mi North 10.4 mph - N/A   Clear
9:33 AM -2.2 °F -21.5 °F -9.4 °F 71% 30.56 in 10.0 mi North 13.8 mph 17.3 mph N/A   Clear
9:52 AM -2.2 °F -22.9 °F -7.6 °F 78% 30.56 in 10.0 mi North 16.1 mph - N/A   Clear
10:12 AM -2.2 °F -22.2 °F -7.6 °F 78% 30.56 in 7.0 mi North 15.0 mph - N/A Snow Light Snow
10:33 AM -0.4 °F -19.9 °F -7.6 °F 72% 30.57 in 5.0 mi North 15.0 mph 20.7 mph N/A Snow Light Snow
10:52 AM -0.4 °F -20.5 °F -7.6 °F 72% 30.57 in 5.0 mi North 16.1 mph - N/A Snow Light Snow
11:12 AM -0.4 °F -19.9 °F -7.6 °F 72% 30.58 in 5.0 mi North 15.0 mph 20.7 mph N/A Snow Light Snow
11:33 AM -0.4 °F -19.9 °F -7.6 °F 72% 30.58 in 5.0 mi North 15.0 mph - N/A Snow Light Snow
11:52 AM -0.4 °F -19.9 °F -7.6 °F 72% 30.57 in 5.0 mi North 15.0 mph 19.6 mph N/A Snow Light Snow
12:12 PM 1.4 °F -18.8 °F -7.6 °F 66% 30.57 in 4.0 mi North 17.3 mph - N/A   Haze
12:33 PM 1.4 °F -17.6 °F -7.6 °F 66% 30.57 in 10.0 mi North 15.0 mph - N/A   Overcast
12:52 PM 1.4 °F -17.6 °F -7.6 °F 66% 30.56 in 10.0 mi North 15.0 mph - N/A   Overcast
1:12 PM 1.4 °F -18.8 °F -5.8 °F 72% 30.56 in 10.0 mi North 17.3 mph - N/A Snow Light Snow
1:33 PM 1.4 °F -18.8 °F -5.8 °F 72% 30.55 in 10.0 mi North 17.3 mph 21.9 mph N/A Snow Light Snow
1:52 PM 1.4 °F -18.2 °F -5.8 °F 72% 30.54 in 7.0 mi North 16.1 mph 23.0 mph N/A   Overcast
2:13 PM 1.4 °F -16.1 °F -5.8 °F 72% 30.54 in 4.0 mi North 12.7 mph - N/A   Haze
2:32 PM 1.4 °F -20.5 °F -7.6 °F 66% 30.54 in 5.0 mi North 20.7 mph 24.2 mph N/A   Haze
2:52 PM 1.4 °F -17.6 °F -7.6 °F 66% 30.54 in 7.0 mi North 15.0 mph 23.0 mph N/A   Overcast
3:13 PM 1.4 °F -19.9 °F -7.6 °F 66% 30.54 in 10.0 mi North 19.6 mph 23.0 mph N/A   Overcast
3:32 PM 1.4 °F -20.5 °F -7.6 °F 66% 30.54 in 10.0 mi North 20.7 mph 25.3 mph N/A   Overcast
3:52 PM -0.4 °F -21.2 °F -7.6 °F 72% 30.53 in 10.0 mi North 17.3 mph 20.7 mph N/A   Overcast
4:13 PM -0.4 °F -23.8 °F -9.4 °F 66% 30.54 in 7.0 mi North 23.0 mph 26.5 mph N/A   Overcast
4:32 PM -2.2 °F -24.7 °F -9.4 °F 71% 30.54 in 10.0 mi North 19.6 mph 24.2 mph N/A   Scattered Clouds
4:52 PM -2.2 °F -25.2 °F -9.4 °F 71% 30.55 in 10.0 mi North 20.7 mph 24.2 mph N/A   Mostly Cloudy
5:13 PM -2.2 °F -23.5 °F -11.2 °F 66% 30.55 in 10.0 mi North 17.3 mph 23.0 mph N/A   Mostly Cloudy
5:32 PM -2.2 °F -22.9 °F -11.2 °F 66% 30.55 in 10.0 mi North 16.1 mph - N/A   Mostly Cloudy
5:52 PM -4.0 °F -23.7 °F -9.4 °F 78% 30.55 in 10.0 mi North 13.8 mph - N/A   Scattered Clouds
6:13 PM -4.0 °F -21.2 °F -11.2 °F 71% 30.55 in 10.0 mi NNW 10.4 mph - N/A   Clear
6:32 PM -5.8 °F -23.4 °F -11.2 °F 77% 30.55 in 10.0 mi NNW 10.4 mph - N/A   Clear
6:52 PM -5.8 °F -22.4 °F -11.2 °F 77% 30.55 in 10.0 mi NNW 9.2 mph - N/A   Clear
7:13 PM -5.8 °F -21.2 °F -11.2 °F 77% 30.55 in 10.0 mi NNW 8.1 mph - N/A   Clear
7:32 PM -7.6 °F -22.1 °F -11.2 °F 84% 30.54 in 10.0 mi NNW 6.9 mph - N/A   Clear
7:52 PM -7.6 °F -23.4 °F -13.0 °F 77% 30.54 in 10.0 mi NNW 8.1 mph - N/A   Clear
8:12 PM -9.4 °F -25.6 °F -14.8 °F 77% 30.54 in 10.0 mi NW 8.1 mph - N/A   Clear
8:32 PM -9.4 °F -24.3 °F -14.8 °F 77% 30.53 in 10.0 mi NW 6.9 mph - N/A   Clear
8:53 PM -11.2 °F -27.8 °F -16.6 °F 77% 30.52 in 10.0 mi NNW 8.1 mph - N/A   Clear
9:12 PM -11.2 °F -26.4 °F -16.6 °F 77% 30.52 in 10.0 mi NW 6.9 mph - N/A   Clear
9:32 PM -11.2 °F -24.8 °F -16.6 °F 77% 30.52 in 10.0 mi NW 5.8 mph - N/A   Clear
9:53 PM -13.0 °F -28.6 °F -18.4 °F 77% 30.51 in 10.0 mi NW 6.9 mph - N/A   Clear
10:12 PM -13.0 °F -30.0 °F -16.6 °F 84% 30.51 in 10.0 mi WNW 8.1 mph - N/A   Clear
10:32 PM -11.2 °F -27.8 °F -16.6 °F 77% 30.50 in 10.0 mi WNW 8.1 mph - N/A   Clear
10:53 PM -11.2 °F -27.8 °F -16.6 °F 77% 30.50 in 10.0 mi NW 8.1 mph - N/A   Clear
11:12 PM -9.4 °F -27.9 °F -14.8 °F 77% 30.49 in 10.0 mi NW 10.4 mph - N/A   Clear
11:32 PM -9.4 °F -26.8 °F -14.8 °F 77% 30.49 in 10.0 mi NW 9.2 mph - N/A   Clear
11:52 PM -9.4 °F -27.9 °F -14.8 °F 77% 30.49 in 10.0 mi NNW 10.4 mph - N/A   Clear